Vorticity
15 -3 12 10 7 9 9 11 4 4 5 1 0 0 6 7 8 9 9 10 9 9
-6 9 7 -2 13 11 11 3 1 -2 3 10 11 10 8 2 4 11 12 11 10 10
-6 5 14 16 8 10 8 1 5 6 5 3 5 8 10 9 10 6 11 11 10 11
12 22 7 2 5 12 6 5 6 1 3 7 6 7 8 9 11 6 5 11 15 12
21 22 17 5 13 12 10 7 4 4 5 5 4 8 5 10 12 6 12 5 8 12
-10 35 22 24 10 10 14 0 4 7 5 4 5 6 7 12 13 6 4 14 12 5
-8 29 23 26 10 9 -2 -0 1 -6 0 4 8 14 12 18 6 7 2 11 -4 -2
20 -21 28 17 8 -0 5 3 -6 10 10 7 10 18 22 6 8 6 -4 12 -2 13
23 23 7 36 17 -2 -6 -22 -0 -1 6 14 18 16 9 5 25 -3 9 13 4 -10
22 11 26 28 29 9 16 10 19 16 13 16 13 20 4 4 3 12 16 18 22 12
28 6 15 22 13 10 9 11 15 12 20 13 14 17 17 19 13 7 8 19 19 17
27 20 11 11 16 8 21 19 9 9 11 12 19 8 10 9 23 27 27 26 26 32
17 20 16 14 18 17 10 6 12 11 15 15 12 14 9 25 11 13 24 42 21 25
15 19 17 18 18 13 8 5 25 19 19 12 19 7 17 13 16 22 17 11 15 7
Height
3038 3037 3036 3038 3041 3044 3046 3049 3050 3053 3054 3056 3057 3058 3059 3058 3058 3059 3059 3061 3063 3065
3025 3026 3028 3029 3032 3035 3037 3039 3040 3042 3044 3046 3047 3048 3049 3049 3049 3049 3049 3050 3051 3053
3015 3014 3017 3018 3022 3024 3027 3028 3030 3031 3034 3036 3037 3037 3038 3038 3038 3038 3038 3039 3040 3041
3001 3001 3004 3008 3010 3013 3016 3018 3020 3021 3024 3025 3025 3026 3026 3026 3027 3027 3028 3028 3028 3030
2988 2987 2988 2993 2997 3001 3006 3008 3009 3011 3013 3014 3014 3014 3014 3014 3015 3015 3017 3018 3018 3018
2975 2974 2971 2975 2980 2988 2994 2997 2998 3000 3002 3003 3003 3003 3003 3003 3003 3004 3005 3006 3007 3008
2965 2964 2959 2964 2970 2974 2980 2985 2987 2989 2989 2990 2991 2991 2991 2990 2991 2992 2993 2994 2995 2996
2948 2955 2951 2955 2959 2961 2968 2973 2977 2978 2977 2978 2978 2977 2977 2978 2980 2981 2981 2982 2983 2983
2937 2941 2943 2946 2948 2953 2958 2961 2965 2965 2965 2966 2965 2965 2966 2967 2968 2969 2968 2969 2971 2971
2925 2930 2934 2934 2938 2944 2948 2952 2954 2954 2955 2954 2953 2954 2955 2955 2955 2955 2955 2956 2958 2958
2913 2917 2923 2924 2930 2934 2940 2942 2943 2943 2943 2942 2943 2944 2945 2945 2944 2944 2945 2945 2944 2944
2905 2910 2916 2918 2922 2927 2930 2932 2933 2933 2932 2933 2934 2936 2936 2935 2935 2933 2932 2932 2932 2933
2903 2905 2908 2911 2914 2919 2921 2923 2922 2923 2924 2926 2927 2928 2928 2928 2926 2926 2925 2924 2926 2928
2897 2899 2902 2903 2909 2912 2913 2913 2914 2915 2917 2919 2921 2922 2922 2922 2921 2920 2920 2920 2922 2925